When you browse on this site, cookies collect data to enhance your experience and personalize the content and advertising you see.
Visit our Privacy Policy to learn more. By continuing to use the site, you agree to this use of cookies and data.
  • In Deutschland
  • Länderverzeichnis
  • Für 7 Tage
  • Wassertemperatur
  • Satellitenkarten
  • Wetterkarte
  • Widgets
  • user-avatar
    Anmelden

    Stündliche Wetter Buriti Alegre

    Heute, 21 Januar, Montag

    Zeit Temperatur Niederschläge Wind Luftdruck Luftfeuchtigkeit
    00:00 +24°C° 0.4 mm 1 m/S 699 mmHg 85%
    01:00 +23°C° 0 mm 1 m/S 699 mmHg 86%
    02:00 +23°C° 0 mm 1 m/S 699 mmHg 87%
    03:00 +23°C° 0 mm 1 m/S 698 mmHg 88%
    04:00 +22°C° 0 mm 1 m/S 698 mmHg 88%
    05:00 +22°C° 0 mm 1 m/S 698 mmHg 88%
    06:00 +22°C° 0 mm 1 m/S 698 mmHg 89%
    07:00 +24°C° 0 mm 1 m/S 699 mmHg 83%
    08:00 +26°C° 0 mm 1 m/S 700 mmHg 77%
    09:00 +28°C° 0 mm 1 m/S 701 mmHg 71%
    10:00 +29°C° 0 mm 1 m/S 701 mmHg 64%
    11:00 +31°C° 0 mm 2 m/S 701 mmHg 58%
    12:00 +32°C° 0 mm 2 m/S 701 mmHg 51%
    13:00 +34°C° 0 mm 2 m/S 700 mmHg 49%
    14:00 +33°C° 0 mm 1 m/S 700 mmHg 46%
    15:00 +34°C° 0 mm 1 m/S 700 mmHg 43%
    16:00 +33°C° 0 mm 1 m/S 699 mmHg 48%
    17:00 +32°C° 0 mm 1 m/S 699 mmHg 53%
    18:00 +31°C° 0 mm 1 m/S 698 mmHg 59%
    19:00 +29°C° 0 mm 1 m/S 699 mmHg 59%
    20:00 +28°C° 0 mm 1 m/S 699 mmHg 59%
    21:00 +26°C° 0 mm 1 m/S 699 mmHg 59%
    22:00 +26°C° 0 mm 1 m/S 699 mmHg 61%
    23:00 +25°C° 0 mm 1 m/S 700 mmHg 63%

    Morgen, 22 Januar, Dienstag

    Zeit Temperatur Niederschläge Wind Luftdruck Luftfeuchtigkeit
    00:00 +25°C° 0 mm 1 m/S 700 mmHg 65%
    01:00 +24°C° 0 mm 1 m/S 699 mmHg 68%
    02:00 +24°C° 0 mm 1 m/S 699 mmHg 72%
    03:00 +23°C° 0 mm 1 m/S 698 mmHg 75%
    04:00 +23°C° 0 mm 1 m/S 698 mmHg 77%
    05:00 +23°C° 0 mm 1 m/S 699 mmHg 79%
    06:00 +21°C° 0 mm 2 m/S 699 mmHg 81%
    07:00 +24°C° 0 mm 2 m/S 699 mmHg 77%
    08:00 +26°C° 0 mm 2 m/S 700 mmHg 73%
    09:00 +28°C° 0 mm 2 m/S 701 mmHg 68%
    10:00 +29°C° 1 mm 2 m/S 701 mmHg 69%
    11:00 +29°C° 1 mm 2 m/S 701 mmHg 69%
    12:00 +30°C° 1 mm 1 m/S 701 mmHg 69%
    13:00 +30°C° 1 mm 1 m/S 700 mmHg 66%
    14:00 +30°C° 1 mm 1 m/S 700 mmHg 63%
    15:00 +31°C° 1 mm 1 m/S 699 mmHg 60%
    16:00 +30°C° 0.3 mm 1 m/S 699 mmHg 65%
    17:00 +29°C° 0.3 mm 1 m/S 699 mmHg 70%
    18:00 +28°C° 0.3 mm 1 m/S 698 mmHg 74%
    19:00 +27°C° 0.1 mm 1 m/S 699 mmHg 76%
    20:00 +26°C° 0.1 mm 1 m/S 699 mmHg 77%
    21:00 +25°C° 0.1 mm 1 m/S 699 mmHg 79%
    22:00 +25°C° 0 mm 1 m/S 699 mmHg 79%
    23:00 +25°C° 0 mm 2 m/S 699 mmHg 80%

    übermorgen, 23 Januar, Mittwoch

    Zeit Temperatur Niederschläge Wind Luftdruck Luftfeuchtigkeit
    00:00 +24°C° 0 mm 2 m/S 699 mmHg 81%
    01:00 +24°C° 0 mm 2 m/S 699 mmHg 83%
    02:00 +24°C° 0 mm 2 m/S 698 mmHg 84%
    03:00 +23°C° 0 mm 2 m/S 698 mmHg 86%
    04:00 +23°C° 0 mm 1 m/S 698 mmHg 87%
    05:00 +23°C° 0 mm 1 m/S 698 mmHg 88%
    06:00 +23°C° 0 mm 1 m/S 698 mmHg 89%
    07:00 +24°C° 0 mm 2 m/S 699 mmHg 84%
    08:00 +26°C° 0 mm 2 m/S 700 mmHg 78%
    09:00 +28°C° 0 mm 2 m/S 700 mmHg 73%
    10:00 +29°C° 0 mm 2 m/S 700 mmHg 66%
    11:00 +30°C° 0 mm 3 m/S 700 mmHg 59%
    12:00 +33°C° 0 mm 3 m/S 700 mmHg 52%
    13:00 +33°C° 0 mm 3 m/S 700 mmHg 53%
    14:00 +33°C° 0 mm 3 m/S 699 mmHg 53%
    15:00 +32°C° 0 mm 2 m/S 698 mmHg 54%
    16:00 +31°C° 0 mm 2 m/S 698 mmHg 58%
    17:00 +31°C° 0 mm 2 m/S 698 mmHg 62%
    18:00 +30°C° 0 mm 2 m/S 698 mmHg 66%
    19:00 +29°C° 0 mm 1 m/S 698 mmHg 67%
    20:00 +27°C° 0 mm 1 m/S 698 mmHg 67%
    21:00 +26°C° 0 mm 1 m/S 699 mmHg 68%
    22:00 +25°C° 0 mm 1 m/S 699 mmHg 70%
    23:00 +25°C° 0 mm 1 m/S 699 mmHg 71%

    24 Januar, Donnerstag

    Zeit Temperatur Niederschläge Wind Luftdruck Luftfeuchtigkeit
    00:00 +24°C° 0 mm 1 m/S 699 mmHg 72%
    01:00 +24°C° 0 mm 1 m/S 698 mmHg 73%
    02:00 +23°C° 0 mm 1 m/S 697 mmHg 73%
    03:00 +23°C° 0 mm 1 m/S 697 mmHg 73%
    04:00 +22°C° 0 mm 1 m/S 697 mmHg 74%
    05:00 +21°C° 0 mm 2 m/S 697 mmHg 75%
    06:00 +20°C° 0 mm 2 m/S 697 mmHg 76%
    07:00 +23°C° 0 mm 2 m/S 698 mmHg 72%
    08:00 +25°C° 0 mm 2 m/S 699 mmHg 68%
    09:00 +27°C° 0 mm 3 m/S 699 mmHg 64%
    10:00 +29°C° 0 mm 3 m/S 699 mmHg 58%
    11:00 +31°C° 0 mm 3 m/S 699 mmHg 51%
    12:00 +33°C° 0 mm 3 m/S 699 mmHg 45%
    13:00 +34°C° 0 mm 2 m/S 699 mmHg 43%
    14:00 +34°C° 0 mm 2 m/S 698 mmHg 41%
    15:00 +34°C° 0 mm 1 m/S 698 mmHg 39%
    16:00 +32°C° 0 mm 1 m/S 697 mmHg 44%
    17:00 +31°C° 0 mm 1 m/S 697 mmHg 49%
    18:00 +30°C° 0 mm 1 m/S 697 mmHg 54%
    19:00 +29°C° 0 mm 1 m/S 697 mmHg 54%
    20:00 +27°C° 0 mm 1 m/S 698 mmHg 54%
    21:00 +26°C° 0 mm 1 m/S 698 mmHg 53%
    22:00 +26°C° 0 mm 1 m/S 698 mmHg 56%
    23:00 +25°C° 0 mm 1 m/S 698 mmHg 58%

    25 Januar, Freitag

    Zeit Temperatur Niederschläge Wind Luftdruck Luftfeuchtigkeit
    00:00 +25°C° 0 mm 1 m/S 698 mmHg 61%
    01:00 +24°C° 0 mm 1 m/S 697 mmHg 64%
    02:00 +24°C° 0 mm 1 m/S 697 mmHg 66%
    03:00 +23°C° 0 mm 1 m/S 696 mmHg 69%
    04:00 +23°C° 0 mm 1 m/S 696 mmHg 71%
    05:00 +22°C° 0 mm 1 m/S 696 mmHg 73%
    06:00 +22°C° 0 mm 1 m/S 697 mmHg 75%
    07:00 +24°C° 0 mm 2 m/S 697 mmHg 71%
    08:00 +25°C° 0 mm 3 m/S 698 mmHg 68%
    09:00 +27°C° 0 mm 3 m/S 698 mmHg 64%
    10:00 +29°C° 0 mm 3 m/S 698 mmHg 60%
    11:00 +30°C° 0 mm 3 m/S 698 mmHg 55%
    12:00 +33°C° 0 mm 3 m/S 698 mmHg 51%
    13:00 +34°C° 0 mm 2 m/S 698 mmHg 50%
    14:00 +33°C° 0 mm 1 m/S 698 mmHg 49%
    15:00 +32°C° 0 mm 0 m/S 697 mmHg 49%
    16:00 +30°C° 0 mm 0 m/S 697 mmHg 54%
    17:00 +29°C° 0 mm 0 m/S 697 mmHg 59%
    18:00 +27°C° 0 mm 0 m/S 696 mmHg 64%
    19:00 +28°C° 1.1 mm 1 m/S 697 mmHg 70%
    20:00 +27°C° 1.1 mm 1 m/S 697 mmHg 75%
    21:00 +25°C° 1.1 mm 1 m/S 697 mmHg 81%
    22:00 +24°C° 3.6 mm 2 m/S 697 mmHg 84%
    23:00 +24°C° 3.6 mm 3 m/S 697 mmHg 88%

    26 Januar, Samstag

    Zeit Temperatur Niederschläge Wind Luftdruck Luftfeuchtigkeit
    00:00 +22°C° 3.6 mm 4 m/S 697 mmHg 91%
    01:00 +22°C° 0.4 mm 4 m/S 697 mmHg 91%
    02:00 +21°C° 0.4 mm 4 m/S 697 mmHg 91%
    03:00 +21°C° 0.4 mm 3 m/S 697 mmHg 91%
    04:00 +21°C° 0.3 mm 3 m/S 697 mmHg 92%
    05:00 +21°C° 0.3 mm 3 m/S 697 mmHg 93%
    06:00 +21°C° 0.3 mm 2 m/S 698 mmHg 93%
    07:00 +22°C° 0.1 mm 3 m/S 698 mmHg 91%
    08:00 +22°C° 0.1 mm 3 m/S 698 mmHg 90%
    09:00 +24°C° 0.1 mm 3 m/S 699 mmHg 88%
    10:00 +25°C° 0.7 mm 4 m/S 699 mmHg 81%
    11:00 +27°C° 0.7 mm 4 m/S 699 mmHg 75%
    12:00 +28°C° 0.7 mm 5 m/S 699 mmHg 69%
    13:00 +28°C° 1.4 mm 4 m/S 699 mmHg 71%
    14:00 +28°C° 1.4 mm 3 m/S 698 mmHg 73%
    15:00 +28°C° 1.4 mm 2 m/S 698 mmHg 76%
    16:00 +27°C° 1.4 mm 2 m/S 698 mmHg 78%
    17:00 +26°C° 1.4 mm 2 m/S 697 mmHg 81%
    18:00 +26°C° 1.4 mm 2 m/S 697 mmHg 83%
    19:00 +25°C° 0.9 mm 2 m/S 698 mmHg 84%
    20:00 +24°C° 0.9 mm 2 m/S 698 mmHg 86%
    21:00 +23°C° 0.9 mm 2 m/S 698 mmHg 87%
    22:00 +21°C° 0 mm 2 m/S 698 mmHg 88%
    23:00 +21°C° 0 mm 2 m/S 698 mmHg 90%
    Mehr zeigen